Location: *
(33.6842°N, 117.7925°W)
Time: 18:05:24
(UTC+00:00)

Cosmos 1295 Rocket - Pass Details

Date: 21 October 2019
Orbit: 943 x 994 km, 82.9° (Epoch: 18 November)

Event Time Altitude Azimuth Distance (km) Brightness Sun altitude
Rises 12:46:33 0° 195° (SSW) 3,652 7.4 -16.1°
Reaches altitude 10° 12:49:06 10° 199° (SSW) 2,701 6.7 -15.6°
Maximum altitude 12:55:11 59° 278° (W) 1,098 4.5 -14.3°
Drops below altitude 10° 13:01:13 10° 358° (N) 2,683 6.7 -13.1°
Sets 13:03:46 0° 2° (N) 3,626 7.5 -12.5°
